Location: ??????
(31.1829°N, 45.6415°E)
Time: 10:11:47
(UTC+00:00)

Daily predictions for brighter satellites

Satellite Brightness Start Highest point End
(mag) Time Altitude Azimuth Time Altitude Azimuth Time Altitude Azimuth
USA 267 4.0 15:03:37 10° ENE 15:09:29 35° SE 15:15:19 10° S
Cosmos 2061 Rocket 4.2 15:03:22 10° SSE 15:09:34 52° E 15:15:46 10° NNE
Cosmos 1992 Rocket 4.0 15:04:22 10° SSW 15:09:35 81° ESE 15:14:50 10° NNE
STARLINK-59 3.7 15:06:11 10° SSW 15:10:08 57° SE 15:14:04 10° NE
Cosmos 1833 Rocket 2.7 15:04:45 10° NNW 15:10:22 67° ENE 15:15:56 10° SSE
STARLINK-22 3.1 15:07:51 10° SW 15:11:17 78° SE 15:14:45 10° NE
STARLINK-56 3.7 15:07:45 10° SSW 15:11:41 56° SE 15:15:37 10° NE
STARLINK-41 3.1 15:09:16 10° SW 15:12:42 89° W 15:16:10 10° NE
STARLINK-73 3.7 15:09:23 10° SSW 15:13:19 59° SE 15:17:16 10° NE
STARLINK-38 3.6 15:11:01 10° SSW 15:14:58 62° SE 15:18:56 10° NE
STARLINK-65 3.6 15:12:40 10° SSW 15:16:37 64° SE 15:20:36 10° NE
STARLINK-58 3.2 15:13:07 10° SW 15:16:40 82° SE 15:20:15 10° NE
Cosmos 1486 Rocket 4.0 15:12:31 10° N 15:17:40 58° ENE 15:22:49 10° SSE
STARLINK 1040 3.3 15:15:15 10° SSW 15:17:52 37° SE 15:20:31 10° ENE
STARLINK-62 3.2 15:14:47 10° SW 15:18:21 90° W 15:21:56 10° NE
STARLINK-53 3.5 15:14:23 10° SW 15:18:22 72° SE 15:22:23 10° NE
Cosmos 1459 Rocket 4.0 15:12:36 10° S 15:18:40 88° W 15:24:44 10° N
CSL-04 Rocket 4.1 15:14:50 10° SE 15:20:02 43° ENE 15:25:13 10° N
STARLINK-34 3.2 15:17:11 10° SW 15:20:44 85° NW 15:24:17 10° NE
STARLINK-33 3.9 15:17:42 10° WSW 15:20:51 47° NW 15:24:02 10° NNE
Lacrosse 4 Rocket 1.5 15:17:43 10° SSW 15:21:50 82° WNW 15:26:03 10° NNE
STARLINK-66 4.1 15:19:26 10° WSW 15:22:34 43° NW 15:25:44 10° NNE
STARLINK-55 4.2 15:21:15 10° WSW 15:24:22 40° NW 15:27:29 10° NNE
Cosmos 1725 Rocket 4.1 15:19:42 10° SSE 15:25:39 53° E 15:31:37 10° NNE
STARLINK-28 4.5 15:22:55 10° WSW 15:25:55 34° NW 15:28:55 10° NNE
NOAA 11 4.3 15:20:53 10° SSE 15:26:11 55° ENE 15:31:29 10° N
STARLINK-1014 3.8 15:25:25 10° SSW 15:28:29 34° SE 15:30:53 15° ENE
CSL-04 Debris 4.3 15:23:30 10° SSE 15:28:45 53° ENE 15:34:02 10° N
Cosmos 2228 Rocket 3.3 15:25:16 10° N 15:29:49 80° W 15:34:22 10° S
Cosmos 1802 Rocket 4.1 15:27:14 10° S 15:33:26 83° W 15:39:46 10° N
SEDSat Delta rocket 3.5 15:33:22 10° W 15:37:18 50° SSW 15:41:11 12° ESE
Starlink-5 placeholder 3.3 15:34:55 10° NW 15:37:24 50° SW 15:40:03 10° SSE
Starlink-5 full stack 3.3 15:34:55 10° NW 15:37:24 50° SW 15:40:03 10° SSE
USA 229 DEB 3.5 15:32:42 10° SSW 15:39:06 71° ESE 15:45:45 10° NE
USA 229 3.5 15:32:48 10° SSW 15:39:12 70° ESE 15:45:51 10° NE
Ariane Rocket 3.9 15:36:04 10° SE 15:40:14 26° ENE 15:44:25 10° NNE
Cosmos 1782 2.9 15:36:59 10° N 15:40:59 82° W 15:44:58 10° S
Cosmos 1862 3.2 15:37:05 10° S 15:41:04 71° E 15:45:03 10° N
Cosmos 1238 Rocket 4.0 15:36:18 10° S 15:41:54 80° W 15:48:21 10° N
Tsikada Rocket 4.3 15:37:13 10° N 15:43:15 44° E 15:49:18 10° SSE
HJ-1C 4.3 15:40:30 10° SE 15:43:18 26° ENE 15:46:06 10° NNE
STARLINK-46 1.9 15:41:33 10° NW 15:43:45 57° NE 15:44:14 42° E
Cosmos 1864 Rocket 4.4 15:39:50 10° S 15:46:04 84° E 15:52:15 10° N
NOSS 3-1 (A) 3.5 15:41:38 10° S 15:46:33 42° ESE 15:51:20 13° NE
Cosmos 1805 Rocket 4.3 15:42:40 10° SSW 15:47:00 56° W 15:51:18 10° N
SL-4 R/B 4.3 15:44:58 10° N 15:47:04 13° NNE 15:48:04 12° NE
Cosmos 2346 Rocket 4.5 15:42:10 10° N 15:48:21 61° E 15:54:25 10° SSE
STARLINK-24 4.2 15:46:28 10° WSW 15:50:23 52° NW 15:53:50 13° NNE
Meteor 2-6 Rocket 4.1 15:45:34 10° N 15:51:07 69° E 15:56:30 10° SSE
STARLINK-1031 4.4 15:49:36 10° S 15:52:58 28° SE 15:53:40 26° ESE
Sich 1 3.3 15:48:55 10° SSW 15:53:12 68° W 15:57:28 10° N
ADEOS Rocket 3.6 15:47:25 10° NNE 15:55:14 88° WNW 16:02:54 10° SSW
STARLINK-81 4.3 15:53:54 10° WSW 15:57:47 49° NW 16:00:48 16° NNE
STARLINK-1033 4.5 15:55:13 10° S 15:58:49 29° SE 15:59:17 29° ESE
Cosmos 1943 Rocket 2.1 15:54:26 10° S 15:59:59 70° ESE 16:05:33 10° NNE
Cosmos 968 Rocket 3.6 15:55:36 10° NNW 16:00:48 80° WSW 16:06:01 10° S
Aureole 2 Rocket 4.2 15:58:27 10° S 15:58:50 13° SSE 15:58:50 13° SSE
STARLINK-77 4.5 15:57:15 10° WSW 16:01:06 45° NW 16:03:59 16° NNE
CZ-4 R/B 3.0 15:57:23 10° SSW 16:01:18 38° W 16:05:15 10° NNW
Cosmos 1707 Rocket 3.5 15:59:03 10° N 16:03:29 70° E 16:07:54 10° SSE
STARLINK-1024 4.1 16:04:55 10° SSW 16:08:44 38° SE 16:08:53 38° ESE
Cosmos 1939 Rocket 3.9 16:07:00 10° S 16:10:55 48° W 16:14:55 10° NNW
CZ-2D R/B 4.4 16:08:35 10° S 16:12:17 45° W 16:16:02 10° NNW
NOSS 2-3 (C) 3.6 16:08:44 10° S 16:12:46 49° ESE 16:13:19 46° E
SJ-11-01 4.3 16:08:54 10° SSE 16:13:27 53° ENE 16:18:00 10° N
Cosmos 1503 Rocket 4.2 16:10:21 10° NNW 16:15:36 71° WSW 16:20:46 10° S
STARLINK-1032 3.9 16:14:42 10° SSW 16:18:29 48° SE 16:18:29 48° SE
CRYOSAT 2 4.3 16:14:31 10° S 16:19:24 87° W 16:24:19 10° N
Hubble Space Telescope 2.8 16:17:08 10° SSW 16:19:20 16° SSE 16:19:20 16° SSE
IRS-1A Rocket 4.1 16:15:12 10° SSE 16:20:42 64° ENE 16:26:09 10° N
STARLINK-1023 4.3 16:19:15 10° WSW 16:21:51 29° NW 16:22:01 29° NW
Cosmos 2233 Rocket 4.0 16:16:05 10° S 16:22:12 80° W 16:28:22 10° N
Cosmos 2369 Rocket 2.1 16:16:37 10° SSW 16:22:14 85° ESE 16:27:24 13° NNE
STARLINK-1011 3.8 16:19:36 10° SSW 16:23:16 53° SSE 16:23:16 53° SSE
STARLINK-1007 4.5 16:21:48 10° WSW 16:24:25 28° NW 16:24:32 28° NW
Cosmos 1340 4.1 16:22:36 10° S 16:24:23 26° S 16:24:23 26° S
Yuri Rocket 3.3 16:21:44 10° W 16:26:24 53° S 16:27:00 49° SSE
Meteor 1-27 Rocket 3.5 16:20:54 10° N 16:26:26 72° E 16:32:03 10° SSE
STARLINK-1029 4.1 16:25:10 10° WSW 16:28:00 40° NW 16:28:00 40° NW
STARLINK-1036 3.8 16:24:32 10° SSW 16:28:04 56° S 16:28:04 56° S
BREEZE-M DEB (TANK) 3.3 16:26:42 10° NW 16:31:36 48° N 16:31:36 48° N
Cosmos 2263 4.1 16:27:17 10° SSW 16:33:02 74° ESE 16:35:28 36° NNE
Cosmos 1812 2.9 16:29:41 10° N 16:33:03 64° NNW 16:33:03 64° NNW
STARLINK-1044 3.9 16:29:28 10° SW 16:32:50 56° S 16:32:50 56° S
Cosmos 2082 Rocket 4.0 16:31:03 10° NW 16:35:57 31° WSW 16:40:52 10° SSW
Cosmos 921 Rocket 4.4 16:35:06 10° SW 16:39:18 40° WNW 16:43:33 10° N
STARLINK-1037 4.3 16:39:24 10° SW 16:42:26 48° SW 16:42:26 48° SW
Cosmos 1656 Rocket 4.5 16:40:36 10° S 16:43:47 35° SSE 16:43:47 35° SSE
CZ-2C R/B 3.3 16:48:10 64° NE 16:48:10 64° NE 16:53:23 10° N
USA 267 3.9 16:48:27 23° NNE 16:52:29 52° NW 16:58:46 10° WSW
H-2A R/B 2.1 16:56:06 80° WNW 16:56:06 80° WNW 17:01:21 10° NNW
ARGOS 3.9 17:10:31 45° NNW 17:10:31 45° NNW 17:14:16 10° NNW
Cosmos 1607 4.4 17:17:00 10° NW 17:22:35 59° W 17:22:35 59° W
FALCON 9 R/B 3.8 17:43:09 10° WNW 17:51:51 40° W 17:51:51 40° W
